Overview Statistics Trail Chart Weather Telemetry Raw packets
 

This is the latest recevied weather packets stored in our database for station/object KO6HRZ. If no packets are shown the sender has not sent any weather packets the latest 10 day(s).

<< 24 25 26 27 28 29 30 >>
Time Temp. Humidity Pressure Rain* Wind** Luminosity Snow
1788310708 24.44° C 46% 1012.9 hPa 0 mm - 84 W/m² -
1788310104 24.44° C 47% 1012.5 hPa 0 mm - 52 W/m² -
1788309499 25° C 46% 1012.5 hPa 0 mm - 123 W/m² -
1788308896 25° C 45% 1012.7 hPa 0 mm - 115 W/m² -
1788308291 25.56° C 44% 1012.7 hPa 0 mm - 106 W/m² -
1788307686 26.11° C 44% 1012.7 hPa 0 mm - 62 W/m² -
1788307082 26.11° C 43% 1012.7 hPa 0 mm - 260 W/m² -
1788306481 26.11° C 42% 1012.6 hPa 0 mm - 381 W/m² -
1788305877 26.11° C 43% 1012.7 hPa 0 mm - 418 W/m² -
1788305274 26.11° C 42% 1012.8 hPa 0 mm - 438 W/m² -
1788304671 27.22° C 41% 1012.9 hPa 0 mm - 455 W/m² -
1788304069 27.78° C 40% 1012.8 hPa 0 mm - 505 W/m² -
1788303464 27.22° C 40% 1013.1 hPa 0 mm - 558 W/m² -
1788302860 27.22° C 41% 1013 hPa 0 mm - 582 W/m² -
1788302258 26.67° C 41% 1013 hPa 0 mm - 604 W/m² -
1788301654 26.67° C 40% 1013.1 hPa 0 mm - 627 W/m² -
1788301051 26.67° C 40% 1013.1 hPa 0 mm - 650 W/m² -
1788300446 27.22° C 42% 1013.5 hPa 0 mm - 675 W/m² -
1788299845 26.67° C 41% 1013.5 hPa 0 mm - 694 W/m² -
1788299243 26.67° C 41% 1013.4 hPa 0 mm - 708 W/m² -
1788298643 26.67° C 43% 1013.6 hPa 0 mm - 723 W/m² -
1788298043 26.11° C 42% 1013.6 hPa 0 mm - 725 W/m² -
1788297439 26.11° C 43% 1013.4 hPa 0 mm - 726 W/m² -
1788296837 26.67° C 44% 1013.7 hPa 0 mm - 739 W/m² -
1788296234 26.11° C 45% 1013.7 hPa 0 mm - 396 W/m² -

* Rain latest hour (hover to see other rain measurements)
** Current wind speed in m/s (hover to see current wind gust speed)